Hourly Weather Roundup
Issued by NWS Central Illinois

Home | Current Version | Previous Version | Text Only | Print | Product List | Glossary On
Versions: 1 2 3 4 5 6 7 8 9 10 11 12 13 14 15 16 17 18 19 20 21 22 23 24 25 26 27 28 29 30 31 32 33 34 35 36 37 38 39 40 41 42 43 44 45 46 47 48 49 50
000
NZUS43 KILX 170910
HWRILX

AREA WEATHER ROUNDUP
NATIONAL WEATHER SERVICE, LINCOLN IL
400 AM CDT WED SEP 17 2014


CITY           SKY/WX    TMP DP  RH WIND       PRES   REMARKS
BLOOMINGTON    CLEAR     46  42  86 S3        30.06F
CHAMPAIGN      CLEAR     46  44  93 SW6       30.07F
DECATUR        CLEAR     45  43  93 CALM      30.07F
FLORA          FOG       41  41 100 CALM      30.08F VSB 3/4
GALESBURG      PTCLDY    46  45  95 CALM      30.05S
JACKSONVILLE   CLEAR     50  48  94 CALM      30.06F
LACON          FOG       45  44  97 CALM      30.05F VSB 1/4
LAWRENCEVILLE  FOG       44  43  96 CALM      30.09S VSB 3/4
LITCHFIELD     CLEAR     44  44 100 S5        30.06F FOG
$$


CITY           SKY/WX    TMP DP  RH WIND       PRES   REMARKS
LINCOLN        CLEAR     46  45  95 CALM      30.05F
MACOMB         PTCLDY    43  43  99 CALM      30.07F
MATTOON        CLEAR     52  48  86 W5        30.06F
MT CARMEL AP   FOG       45  45 100 CALM      30.09S VSB 1/2
OLNEY-NOBLE AP FOG       43  43 100 CALM      30.09S VSB 3/4
PARIS          CLEAR     43  43 100 CALM      30.08F FOG
PEORIA         CLEAR     50  46  86 CALM      30.06F
PONTIAC        CLEAR     45  43  93 CALM      30.05F
RANTOUL        CLEAR     47  44  89 CALM      30.08S
ROBINSON       FOG       44  44 100 CALM      30.10S VSB 1/2
SPRINGFIELD    CLEAR     46  44  93 CALM      30.06F
TAYLORVILLE    CLEAR     45  43  93 CALM      30.06F FOG
$$

...REGIONAL REPORTS...


CITY           SKY/WX    TMP DP  RH WIND       PRES   REMARKS
CHICAGO O`HARE CLEAR     52  46  80 CALM      30.05F
KANKAKEE       FOG       41  41  99 CALM      30.07F VSB 1/4
MOLINE         CLEAR     46  43  89 CALM      30.04F
MOUNT VERNON   CLEAR     45  39  81 CALM      30.09S
PITTSFIELD     CLEAR     48  46  94 CALM      30.06F
QUINCY         CLEAR     53  49  86 S7        30.04F
ROCKFORD       PTCLDY    44  41  89 CALM      30.07F
$$


CITY           SKY/WX    TMP DP  RH WIND       PRES   REMARKS
BURLINGTON     PTCLDY    47  47 100 S5        30.03F FOG
CEDAR RAPIDS   PTCLDY    46  46 100 SE3       30.02F
DES MOINES     CLOUDY    57  49  74 SE5       30.00F
KIRKSVILLE     CLOUDY    54  52  93 SE5       30.02F
OTTUMWA        MOCLDY    52  48  86 S5        30.01F
ST LOUIS       PTCLDY    54  50  86 S5        30.07F
$$


CITY           SKY/WX    TMP DP  RH WIND       PRES   REMARKS
TERRE HAUTE    FOG       44  43  96 CALM      30.08S VSB 1/4
EVANSVILLE     CLEAR     48  45  89 CALM      30.08F
INDIANAPOLIS   PTCLDY    49  48  97 SW5       30.07F FOG
LAFAYETTE      PTCLDY    44  44 100 MISG      30.08S FOG
MADISON        MOCLDY    40  39  97 CALM      30.04S FOG
MILWAUKEE      CLEAR     50  45  83 S3        30.04F
$$




USA.gov is the U.S. government's official web portal to all federal, state and local government web resources and services.